Stations météo

réclame
Mon MeteoGroup
La Roda de Andalucia, Espagne (8399): Température de l'air & dewpoint: 12.12.2017 23:00:00 - 18.12.2017 23:00:00 (CET)La Roda de Andalucia, Espagne (8399): Vitesse du vent & gusts: 12.12.2017 23:00:00 - 18.12.2017 23:00:00 (CET)La Roda de Andalucia, Espagne (8399): Direction du vent: 12.12.2017 23:00:00 - 18.12.2017 23:00:00 (CET)La Roda de Andalucia, Espagne (8399): reduced air pressure: 12.12.2017 23:00:00 - 18.12.2017 23:00:00 (CET)La Roda de Andalucia, Espagne (8399): visibility: 12.12.2017 23:00:00 - 18.12.2017 23:00:00 (CET)La Roda de Andalucia, Espagne (8399): Ensoleillement: 12.12.2017 23:00:00 - 18.12.2017 23:00:00 (CET)La Roda de Andalucia, Espagne (8399): Quantités de précipitations: 12.12.2017 23:00:00 - 18.12.2017 23:00:00 (CET)
Date & Time tt [°C] td [°C] ff [km/h] ff [knt] fx [km/h] fx [knt] dd ppp [hPa] vv [km] sd [min] rr [mm]
18.12.2017 23:00:00 - - - - - - - - - - -
18.12.2017 22:00:00 1,6 -0,3 2 1 6 3 SSW 1029,4 - 0 0,0
18.12.2017 21:00:00 2,5 0,2 5 3 10 5 S 1029,1 - 0 0,0
18.12.2017 20:00:00 3,7 0,4 3 1 9 5 WSW 1029,1 - 0 0,0
18.12.2017 19:00:00 6,2 0,6 3 1 10 5 SSW 1028,5 - 0 -
18.12.2017 18:00:00 9,5 0,2 3 2 16 8 WNW 1028,1 - 20 0,0
18.12.2017 17:00:00 11,7 -1,4 10 6 17 9 N 1027,5 - 60 0,0
18.12.2017 16:00:00 12,2 -0,7 5 3 18 10 N 1027,7 - 60 0,0
18.12.2017 15:00:00 11,9 -1,0 9 5 20 11 N 1028,6 - 60 0,0
18.12.2017 14:00:00 11,9 0,0 9 5 17 9 N 1029,4 - 60 0,0
18.12.2017 13:00:00 11,2 0,2 5 3 10 5 N 1029,9 - 60 -
18.12.2017 12:00:00 9,1 0,9 5 3 7 4 NW 1031,1 - 60 0,0
18.12.2017 11:00:00 6,0 0,2 4 2 6 4 NW 1032,1 - 60 0,0
18.12.2017 10:00:00 2,8 1,7 1 1 5 3 E 1032,4 - 59 0,0
18.12.2017 09:00:00 -0,4 -1,4 3 2 5 3 NW 1032,4 - 0 0,0
18.12.2017 08:00:00 -0,1 -1,2 3 2 11 6 SSW 1032,2 - 0 0,0
18.12.2017 07:00:00 -0,8 -1,7 8 4 10 5 S 1032,2 - 0 -
18.12.2017 06:00:00 -0,9 -2,0 5 3 9 5 S 1032,5 - 0 0,0
18.12.2017 05:00:00 -0,6 -1,7 4 2 7 4 S 1032,5 - 0 0,0
18.12.2017 04:00:00 -0,5 -1,7 4 2 9 5 S 1032,3 - 0 0,0
18.12.2017 03:00:00 -0,2 -1,4 6 3 11 6 S 1032,5 - 0 0,0
18.12.2017 02:00:00 0,3 -1,2 7 4 9 5 S 1032,5 - 0 0,0
18.12.2017 01:00:00 1,3 -1,0 6 3 11 6 S 1032,2 - 0 -
18.12.2017 00:00:00 1,4 -0,3 9 5 11 6 S 1032,2 - 0 0,0
17.12.2017 23:00:00 0,6 -1,0 8 4 11 6 S 1032,1 - 0 0,0
17.12.2017 22:00:00 0,9 -1,0 7 4 10 5 S 1032,0 - 0 0,0
17.12.2017 21:00:00 1,5 -0,7 2 1 6 4 SSE 1031,6 - 0 0,0
17.12.2017 20:00:00 3,3 -0,7 2 1 9 5 SSE 1030,5 - 0 0,0
17.12.2017 19:00:00 6,6 -2,0 6 3 18 10 N 1029,3 - 0 -
17.12.2017 18:00:00 8,4 -2,2 9 5 28 15 N 1028,3 - 19 0,0
17.12.2017 17:00:00 10,7 -3,0 13 7 22 12 N 1027,1 - 60 0,0
17.12.2017 16:00:00 11,8 -3,3 8 5 18 10 N 1026,6 - 60 0,0
17.12.2017 15:00:00 11,5 -3,0 8 4 20 11 NNE 1026,6 - 60 0,0
17.12.2017 14:00:00 10,7 -3,3 12 6 27 15 NNE 1027,5 - 60 0,0
17.12.2017 13:00:00 10,2 -2,2 11 6 21 11 N 1028,2 - 60 -
17.12.2017 12:00:00 8,6 -1,2 9 5 18 10 N 1028,8 - 60 0,0
17.12.2017 11:00:00 5,7 0,6 4 2 8 4 NNW 1029,0 - 60 0,0
17.12.2017 10:00:00 2,9 1,9 0 0 13 7 N 1028,8 - 60 0,2
17.12.2017 09:00:00 -0,3 -1,2 8 4 10 5 S 1028,9 - 3 0,0
17.12.2017 08:00:00 -1,1 -2,2 4 2 8 4 SSE 1029,0 - 0 0,0
17.12.2017 07:00:00 -0,8 -1,7 4 2 9 5 S 1028,0 - 0 -
17.12.2017 06:00:00 -0,2 -1,2 2 1 11 6 ESE 1027,2 - 0 0,0
17.12.2017 05:00:00 -0,2 -1,2 7 4 10 5 S 1027,3 - 0 0,0
17.12.2017 04:00:00 0,0 -1,2 7 4 10 5 S 1027,0 - 0 0,0
17.12.2017 03:00:00 0,3 -1,0 6 3 10 5 S 1026,7 - 0 0,0
17.12.2017 02:00:00 0,5 -0,7 6 4 11 6 S 1026,8 - 0 0,0
17.12.2017 01:00:00 1,0 -0,5 5 3 8 4 S 1026,4 - 0 -
17.12.2017 00:00:00 1,2 -0,7 4 2 7 4 E 1026,0 - 0 0,0
16.12.2017 23:00:00 2,5 -0,5 3 2 10 6 NE 1025,2 - 0 0,0
16.12.2017 22:00:00 5,0 -0,5 2 1 19 10 NNE 1024,5 - 0 0,0
16.12.2017 21:00:00 6,4 -0,5 7 4 17 9 N 1023,7 - 0 0,0
16.12.2017 20:00:00 7,6 -0,5 11 6 23 12 N 1022,7 - 0 0,0
16.12.2017 19:00:00 8,2 0,0 12 7 27 15 N 1021,9 - 0 -
16.12.2017 18:00:00 9,5 -0,3 15 8 33 18 N 1020,8 - 21 0,0
16.12.2017 17:00:00 11,2 -1,0 19 10 32 17 N 1020,1 - 60 0,0
16.12.2017 16:00:00 12,2 0,6 14 7 35 19 N 1019,1 - 60 0,0
16.12.2017 15:00:00 12,7 -1,0 16 9 34 19 N 1018,7 - 60 0,0
16.12.2017 14:00:00 12,7 -1,0 16 9 33 18 N 1018,7 - 60 0,0
16.12.2017 13:00:00 12,5 -0,5 13 7 29 16 NNE 1019,0 - 60 -
16.12.2017 12:00:00 11,7 -1,2 16 8 26 14 NNE 1019,7 - 60 0,0
16.12.2017 11:00:00 9,5 1,7 6 3 13 7 W 1019,4 - 60 0,0
16.12.2017 10:00:00 6,9 1,9 6 4 15 8 N 1018,7 - 60 0,0
16.12.2017 09:00:00 5,5 1,7 8 4 22 12 NNW 1017,9 - 6 0,0
16.12.2017 08:00:00 6,0 2,3 11 6 20 11 NNW 1017,1 - 0 0,0
16.12.2017 07:00:00 6,4 3,2 6 3 14 7 N 1016,0 - 0 -
16.12.2017 06:00:00 7,3 4,1 6 3 18 10 NW 1015,0 - 0 0,0
16.12.2017 05:00:00 7,9 5,0 4 2 13 7 NW 1014,6 - 0 0,0
16.12.2017 04:00:00 8,6 5,8 6 3 18 10 WNW 1014,3 - 0 0,0
16.12.2017 03:00:00 9,4 5,9 11 6 18 10 NNW 1014,2 - 0 0,0
16.12.2017 02:00:00 10,8 7,8 7 4 21 12 N 1013,9 - 0 0,0
16.12.2017 01:00:00 11,5 9,4 13 7 31 17 NNW 1013,6 - 0 -
16.12.2017 00:00:00 13,2 11,9 15 8 40 22 W 1013,2 - 0 0,0
15.12.2017 23:00:00 13,3 12,0 14 8 36 20 W 1012,8 - 0 1,6
15.12.2017 22:00:00 13,4 12,0 14 7 26 14 W 1012,8 - 0 0,4
15.12.2017 21:00:00 13,4 11,8 12 6 26 14 WSW 1013,2 - 0 0,2
15.12.2017 20:00:00 13,5 11,6 13 7 32 17 WSW 1013,3 - 0 0,0
15.12.2017 19:00:00 13,6 11,1 16 9 32 17 W 1013,1 - 0 -
15.12.2017 18:00:00 14,1 10,6 14 8 37 20 W 1013,0 - 0 0,0
15.12.2017 17:00:00 14,7 10,9 13 7 37 20 W 1013,0 20 3 0,0
15.12.2017 16:00:00 15,6 11,0 18 10 35 19 W 1012,8 20 14 0,0
15.12.2017 15:00:00 15,0 11,2 17 9 36 20 W 1013,3 20 14 0,0
15.12.2017 14:00:00 14,3 11,8 16 9 38 21 W 1014,3 20 4 0,0
15.12.2017 13:00:00 13,7 12,2 17 9 35 19 W 1015,6 20 1 -
15.12.2017 12:00:00 12,8 11,7 13 7 30 16 W 1017,3 20 0 0,2
15.12.2017 11:00:00 12,2 11,1 7 4 15 8 W 1017,8 2,3 0 0,8
15.12.2017 10:00:00 11,5 10,4 6 3 13 7 W 1017,6 13 0 0,0
15.12.2017 09:00:00 11,0 9,9 6 3 19 10 WSW 1017,4 11 0 0,0
15.12.2017 08:00:00 11,2 10,0 13 7 28 15 W 1017,2 8 0 0,0
15.12.2017 07:00:00 11,2 10,0 14 7 28 15 W 1017,4 10 0 -
15.12.2017 06:00:00 11,0 9,9 7 4 15 8 WNW 1017,7 2,2 0 0,0
15.12.2017 05:00:00 10,9 9,8 5 3 23 12 NW 1018,2 4,1 0 0,0
15.12.2017 04:00:00 11,1 10,0 7 4 18 10 WNW 1018,8 7 0 0,0
15.12.2017 03:00:00 11,3 10,2 10 6 21 11 W 1018,8 3,5 0 0,2
15.12.2017 02:00:00 11,1 10,0 5 3 18 10 WSW 1018,8 1,3 0 0,0
15.12.2017 01:00:00 10,7 9,4 6 3 11 6 SW 1019,8 4,2 0 -
15.12.2017 00:00:00 10,3 9,0 2 1 5 3 SSW 1020,8 1,4 0 0,2
14.12.2017 23:00:00 10,3 8,9 3 1 12 7 S 1021,5 7 0 0,0
14.12.2017 22:00:00 10,2 8,8 3 1 10 5 WSW 1022,1 6 0 0,0
14.12.2017 21:00:00 10,3 8,8 6 4 18 10 W 1022,4 4,0 0 0,0
14.12.2017 20:00:00 10,9 8,1 10 5 22 12 W 1022,6 8 0 0,0
14.12.2017 19:00:00 11,6 6,5 8 5 15 8 WNW 1022,4 20 0 -
14.12.2017 18:00:00 12,1 7,0 3 1 15 8 W 1022,3 20 7 0,0
14.12.2017 17:00:00 13,3 6,8 8 5 18 10 W 1022,0 20 40 0,0
14.12.2017 16:00:00 14,2 6,2 5 3 11 6 NNW 1022,0 20 60 0,0
14.12.2017 15:00:00 14,2 4,8 3 2 15 8 NNE 1022,6 20 56 0,0
14.12.2017 14:00:00 12,8 4,5 5 3 13 7 N 1024,1 20 50 0,0
14.12.2017 13:00:00 11,9 2,7 2 1 6 3 ENE 1025,3 20 9 -
14.12.2017 12:00:00 10,0 2,7 2 1 9 5 NW 1026,6 20 0 0,0
14.12.2017 11:00:00 9,0 3,2 5 3 9 5 S 1026,8 20 55 0,0
14.12.2017 10:00:00 5,0 2,3 6 3 14 8 S 1027,5 20 52 0,0
14.12.2017 09:00:00 2,4 1,5 8 4 13 7 S 1028,0 20 8 0,0
14.12.2017 08:00:00 1,2 0,2 6 3 9 5 S 1027,9 10 0 0,0
14.12.2017 07:00:00 1,9 0,6 3 2 13 7 SSW 1027,7 12 0 -
14.12.2017 06:00:00 2,1 1,1 9 5 15 8 S 1027,4 20 0 0,0
14.12.2017 05:00:00 1,7 0,6 6 4 9 5 S 1027,9 10 0 0,0
14.12.2017 04:00:00 2,3 1,1 3 2 12 7 S 1028,1 11 0 0,0
14.12.2017 03:00:00 2,6 1,5 5 3 12 7 S 1028,2 8 0 0,0
14.12.2017 02:00:00 2,2 1,3 4 2 9 5 S 1028,7 8 0 0,0
14.12.2017 01:00:00 1,9 0,6 6 3 11 6 S 1029,1 4,3 0 -
14.12.2017 00:00:00 2,6 1,5 9 5 11 6 S 1029,1 12 0 0,0
13.12.2017 23:00:00 2,8 1,5 8 4 10 6 S 1029,3 6 0 0,0
13.12.2017 22:00:00 2,9 1,5 6 4 10 5 S 1029,3 16 0 0,0
13.12.2017 21:00:00 3,7 2,1 7 4 9 5 S 1029,0 14 0 0,0
13.12.2017 20:00:00 4,6 2,7 4 2 8 4 S 1028,6 12 0 0,0
13.12.2017 19:00:00 6,6 2,9 4 2 9 5 S 1027,7 20 0 -
13.12.2017 18:00:00 11,3 2,9 5 3 7 4 S 1026,7 20 18 0,0
13.12.2017 17:00:00 15,5 -1,2 4 2 9 5 SSW 1026,1 20 60 0,0
13.12.2017 16:00:00 15,3 -1,7 4 2 12 6 SSE 1026,3 20 60 0,0
13.12.2017 15:00:00 14,9 1,7 6 3 15 8 SSW 1026,4 20 60 0,0
13.12.2017 14:00:00 13,8 3,2 9 5 19 10 S 1027,2 20 60 0,0
13.12.2017 13:00:00 12,9 3,2 8 4 14 8 S 1028,1 20 60 -
13.12.2017 12:00:00 11,2 1,5 5 3 9 5 S 1028,9 20 60 0,0
13.12.2017 11:00:00 6,8 1,3 6 3 15 8 S 1029,3 20 60 0,0
13.12.2017 10:00:00 3,0 0,4 9 5 16 9 S 1029,1 20 60 0,2
13.12.2017 09:00:00 -0,7 -2,0 2 1 8 5 SSE 1030,1 20 9 0,0
13.12.2017 08:00:00 -0,9 -2,2 2 1 7 4 WSW 1029,7 14 0 0,0
13.12.2017 07:00:00 -0,2 -1,7 1 1 8 4 SE 1028,7 13 0 -
13.12.2017 06:00:00 0,3 -1,0 6 3 14 8 S 1027,6 20 0 0,0
13.12.2017 05:00:00 -0,4 -1,4 5 3 11 6 S 1027,9 20 0 0,0
13.12.2017 04:00:00 -0,9 -2,0 6 3 11 6 S 1027,9 6 0 0,0
13.12.2017 03:00:00 -0,4 -1,4 5 3 14 8 S 1027,5 10 0 0,0
13.12.2017 02:00:00 -0,3 -1,4 6 3 10 5 S 1026,7 11 0 0,0
13.12.2017 01:00:00 -0,3 -1,7 5 3 9 5 S 1026,8 14 0 -
13.12.2017 00:00:00 0,1 -1,4 1 1 9 5 W 1026,3 6 0 0,0
12.12.2017 23:00:00 0,8 -0,7 8 4 11 6 S 1025,4 20 0 0,0

tt = Température de l'air
td = dewpoint
ff = Vitesse du vent
fx = gusts
dd = Direction du vent
ppp = reduced air pressure
vv = visibility
sd = Ensoleillement
rr = Quantités de précipitations

stations d'obs. à proximité